This is the latest recevied weather packets stored in our database for station/object AJ5AG. If no packets are shown the sender has not sent any weather packets the latest 10 day(s).
| Time | Temp. | Humidity | Pressure | Rain* | Wind** | Luminosity | Snow |
|---|---|---|---|---|---|---|---|
| 1777946441 | 23.89° C | 71% | 1012.8 hPa | 0 mm | - | 0 W/m² | - |
| 1777946138 | 23.89° C | 71% | 1012.6 hPa | 0 mm | - | 0 W/m² | - |
| 1777945835 | 23.89° C | 70% | 1012.6 hPa | 0 mm | - | 0 W/m² | - |
| 1777945532 | 23.89° C | 70% | 1012.4 hPa | 0 mm | - | 0 W/m² | - |
| 1777945229 | 23.89° C | 70% | 1012.4 hPa | 0 mm | - | 0 W/m² | - |
| 1777944926 | 23.89° C | 70% | 1012.2 hPa | 0 mm | - | 0 W/m² | - |
| 1777944624 | 23.89° C | 70% | 1012.1 hPa | 0 mm | - | 0 W/m² | - |
| 1777944322 | 23.89° C | 69% | 1012.2 hPa | 0 mm | - | 0 W/m² | - |
| 1777944019 | 23.89° C | 69% | 1011.9 hPa | 0 mm | - | 0 W/m² | - |
| 1777943714 | 24.44° C | 69% | 1011.9 hPa | 0 mm | - | 0 W/m² | - |
| 1777943411 | 24.44° C | 69% | 1012.2 hPa | 0 mm | - | 0 W/m² | - |
| 1777943106 | 24.44° C | 69% | 1012.3 hPa | 0 mm | - | 1 W/m² | - |
| 1777942803 | 24.44° C | 68% | 1012.2 hPa | 0 mm | - | 1 W/m² | - |
| 1777942500 | 24.44° C | 67% | 1012.1 hPa | 0 mm | - | 2 W/m² | - |
| 1777942198 | 25° C | 66% | 1012.2 hPa | 0 mm | - | 4 W/m² | - |
| 1777941894 | 25° C | 66% | 1012.3 hPa | 0 mm | - | 5 W/m² | - |
| 1777941591 | 25° C | 66% | 1012.4 hPa | 0 mm | - | 6 W/m² | - |
| 1777941288 | 25° C | 66% | 1012.5 hPa | 0 mm | - | 9 W/m² | - |
| 1777940984 | 25° C | 65% | 1012.5 hPa | 0 mm | - | 13 W/m² | - |
| 1777940680 | 25° C | 64% | 1012.5 hPa | 0 mm | - | 17 W/m² | - |
| 1777940379 | 25° C | 64% | 1012.5 hPa | 0 mm | - | 23 W/m² | - |
| 1777940076 | 25.56° C | 64% | 1012.3 hPa | 0 mm | - | 24 W/m² | - |
| 1777939773 | 25.56° C | 63% | 1012.3 hPa | 0 mm | - | 25 W/m² | - |
| 1777939471 | 25.56° C | 61% | 1012.2 hPa | 0 mm | - | 23 W/m² | - |
| 1777939167 | 25.56° C | 62% | 1012.3 hPa | 0 mm | - | 23 W/m² | - |
* Rain latest hour (hover to see other rain measurements)
** Current wind speed in m/s (hover to see current wind gust speed)